Total_Precipitation_Accumulation
1.55 1.38 1.94 2.71 2.51 1.87 1.41 0.95 0.60 0.49 0.32 0.22 0.13 0.12 0.27 0.59 0.87 1.13 0.88 0.71 0.51 0.39 0.32 0.42 0.59 0.55 0.51 0.50 0.48 0.43 0.45 0.44 0.39 0.40 0.38 0.36 0.33 0.31 0.30 0.27 0.26 0.25 0.25 0.25 0.31 0.40 0.46 0.48 0.56
1.19 1.60 2.21 2.89 2.33 1.72 1.52 0.97 0.63 0.42 0.21 0.12 0.07 0.07 0.17 0.24 0.21 0.47 0.86 0.94 0.47 0.32 0.31 0.42 0.60 0.61 0.59 0.56 0.54 0.56 0.57 0.51 0.50 0.51 0.47 0.45 0.41 0.36 0.33 0.32 0.30 0.29 0.30 0.33 0.35 0.41 0.50 0.55 0.57
1.37 2.18 2.64 2.48 1.76 1.65 1.53 0.93 0.52 0.28 0.13 0.08 0.06 0.05 0.11 0.23 0.28 0.54 0.88 0.73 0.45 0.34 0.36 0.56 0.72 0.70 0.69 0.62 0.62 0.68 0.65 0.59 0.57 0.56 0.55 0.55 0.50 0.48 0.40 0.37 0.37 0.38 0.42 0.46 0.44 0.47 0.53 0.59 0.61
1.48 2.31 2.37 1.89 1.66 1.37 0.99 0.66 0.37 0.28 0.18 0.06 0.05 0.08 0.13 0.27 0.41 0.56 0.63 0.55 0.50 0.47 0.43 0.55 0.68 0.74 0.73 0.62 0.64 0.72 0.67 0.63 0.56 0.51 0.53 0.53 0.51 0.52 0.46 0.47 0.48 0.46 0.50 0.56 0.58 0.61 0.63 0.63 0.64
1.87 2.29 2.02 1.63 1.53 1.12 0.75 0.52 0.31 0.29 0.25 0.09 0.05 0.18 0.24 0.37 0.46 0.53 0.57 0.50 0.48 0.47 0.38 0.43 0.65 0.70 0.69 0.66 0.70 0.80 0.74 0.67 0.55 0.50 0.54 0.56 0.55 0.54 0.52 0.54 0.55 0.53 0.51 0.56 0.61 0.65 0.65 0.61 0.64
2.02 2.01 1.81 1.58 1.48 1.17 0.84 0.53 0.34 0.31 0.23 0.11 0.10 0.26 0.34 0.43 0.57 0.63 0.65 0.73 0.73 0.69 0.55 0.51 0.67 0.72 0.70 0.73 0.77 0.85 0.85 0.73 0.60 0.56 0.56 0.54 0.55 0.55 0.56 0.57 0.58 0.58 0.56 0.60 0.62 0.62 0.61 0.54 0.55
1.94 1.86 1.58 1.24 1.28 1.42 0.98 0.56 0.41 0.40 0.31 0.21 0.14 0.31 0.42 0.51 0.58 0.69 0.83 0.95 1.03 1.05 0.94 0.84 0.78 0.71 0.74 0.80 0.79 0.94 1.07 0.92 0.73 0.65 0.65 0.58 0.53 0.53 0.53 0.53 0.59 0.60 0.61 0.61 0.60 0.63 0.61 0.56 0.54
1.55 1.49 1.27 1.19 1.30 1.48 0.91 0.57 0.43 0.41 0.33 0.19 0.16 0.29 0.46 0.45 0.51 0.69 0.86 0.93 0.98 1.03 0.95 0.94 1.02 1.00 0.99 1.00 1.07 1.19 1.50 1.38 1.00 0.81 0.69 0.65 0.57 0.55 0.58 0.56 0.58 0.64 0.66 0.67 0.70 0.69 0.68 0.68 0.63
1.51 1.62 1.54 1.62 1.59 1.34 0.79 0.61 0.47 0.33 0.30 0.20 0.16 0.24 0.30 0.33 0.45 0.54 0.63 0.69 0.74 0.77 0.82 0.87 0.93 0.95 0.98 0.96 1.13 1.38 1.66 1.73 1.38 1.10 0.95 0.78 0.55 0.57 0.65 0.59 0.68 0.74 0.76 0.79 0.85 0.84 0.77 0.77 0.68
1.51 1.55 1.41 1.35 1.10 0.80 0.63 0.55 0.46 0.36 0.36 0.30 0.27 0.28 0.30 0.34 0.46 0.52 0.56 0.63 0.63 0.59 0.57 0.58 0.62 0.67 0.72 0.77 1.04 1.27 1.33 1.53 1.31 1.28 1.13 0.98 0.92 0.87 0.69 0.64 0.79 0.85 0.86 0.85 0.90 0.95 0.80 0.67 0.55
1.33 1.20 1.01 0.97 0.69 0.48 0.42 0.39 0.34 0.30 0.34 0.29 0.31 0.30 0.35 0.37 0.44 0.48 0.50 0.52 0.53 0.55 0.52 0.45 0.46 0.48 0.54 0.67 0.88 1.10 1.23 1.40 1.41 1.39 1.33 1.32 1.27 0.94 0.78 0.85 0.88 0.89 0.88 0.79 0.83 0.83 0.64 0.51 0.47
1.25 0.95 0.81 0.73 0.49 0.42 0.37 0.32 0.25 0.20 0.18 0.14 0.18 0.23 0.31 0.39 0.40 0.39 0.41 0.44 0.45 0.50 0.56 0.49 0.37 0.37 0.39 0.47 0.66 0.86 1.07 1.26 1.31 1.14 1.06 1.19 1.20 1.01 0.88 1.00 1.09 1.06 1.01 1.00 1.01 0.92 0.75 0.56 0.49
1.18 1.06 0.81 0.66 0.47 0.43 0.33 0.27 0.21 0.15 0.11 0.11 0.16 0.25 0.34 0.41 0.43 0.42 0.38 0.40 0.41 0.47 0.54 0.56 0.48 0.40 0.39 0.44 0.51 0.58 0.87 1.05 1.20 1.25 1.03 1.15 1.19 1.12 0.98 0.93 1.10 1.06 1.04 1.05 1.05 1.01 0.88 0.76 0.61
1.09 0.92 0.62 0.54 0.45 0.41 0.34 0.27 0.22 0.17 0.15 0.12 0.15 0.24 0.31 0.40 0.45 0.47 0.43 0.39 0.36 0.40 0.47 0.52 0.55 0.54 0.50 0.49 0.51 0.51 0.56 0.67 0.79 0.76 0.73 0.92 1.04 1.00 1.00 0.87 0.92 0.99 1.10 1.25 1.23 1.06 0.98 0.88 0.74
0.81 0.75 0.66 0.50 0.43 0.38 0.38 0.37 0.23 0.18 0.19 0.19 0.17 0.21 0.29 0.34 0.36 0.39 0.39 0.36 0.35 0.39 0.42 0.47 0.54 0.61 0.62 0.63 0.71 0.64 0.59 0.64 0.64 0.60 0.61 0.72 0.83 0.85 0.97 0.94 0.91 0.92 1.10 1.27 1.33 1.23 1.14 0.95 0.86
0.70 0.74 0.88 0.62 0.53 0.47 0.51 0.46 0.19 0.20 0.18 0.17 0.15 0.15 0.19 0.25 0.29 0.31 0.34 0.36 0.36 0.37 0.37 0.39 0.43 0.48 0.53 0.60 0.68 0.73 0.73 0.75 0.71 0.74 0.70 0.66 0.79 0.91 1.03 1.06 0.97 0.95 1.12 1.28 1.37 1.42 1.39 1.24 1.11
0.71 0.69 0.66 0.55 0.45 0.41 0.40 0.32 0.15 0.13 0.11 0.10 0.09 0.08 0.09 0.11 0.17 0.22 0.25 0.30 0.35 0.36 0.32 0.31 0.32 0.32 0.35 0.42 0.54 0.65 0.72 0.80 0.86 0.88 0.86 0.84 0.88 0.92 1.06 1.20 1.20 1.19 1.25 1.29 1.30 1.35 1.31 1.28 1.23
0.59 0.46 0.40 0.37 0.26 0.30 0.27 0.20 0.13 0.09 0.06 0.04 0.04 0.04 0.04 0.04 0.07 0.11 0.16 0.23 0.28 0.30 0.30 0.30 0.31 0.30 0.27 0.31 0.45 0.56 0.63 0.71 0.87 0.94 1.01 1.27 1.36 1.14 1.10 1.21 1.23 1.25 1.38 1.38 1.48 1.59 1.44 1.29 1.33
0.42 0.29 0.24 0.22 0.15 0.14 0.13 0.10 0.08 0.05 0.03 0.02 0.02 0.03 0.03 0.02 0.02 0.02 0.04 0.08 0.15 0.15 0.15 0.18 0.24 0.31 0.29 0.26 0.33 0.44 0.53 0.67 0.81 0.97 1.04 1.27 1.37 1.28 1.29 1.30 1.29 1.29 1.32 1.37 1.52 1.76 1.65 1.48 1.39
0.36 0.28 0.20 0.15 0.12 0.08 0.06 0.05 0.05 0.04 0.03 0.02 0.02 0.02 0.02 0.02 0.02 0.02 0.02 0.03 0.05 0.08 0.08 0.11 0.15 0.24 0.32 0.36 0.41 0.53 0.71 0.83 0.93 1.06 1.13 1.24 1.26 1.25 1.18 1.33 1.42 1.35 1.42 1.49 1.63 1.81 1.86 1.69 1.55
0.24 0.25 0.18 0.13 0.10 0.06 0.05 0.05 0.04 0.04 0.04 0.03 0.03 0.03 0.03 0.04 0.04 0.04 0.03 0.03 0.03 0.04 0.06 0.11 0.19 0.33 0.50 0.66 0.88 1.13 1.41 1.53 1.42 1.27 1.34 1.47 1.53 1.49 1.42 1.48 1.62 1.54 1.54 1.58 1.63 1.66 1.96 2.02 1.86
0.22 0.14 0.10 0.07 0.08 0.06 0.04 0.07 0.05 0.06 0.08 0.09 0.09 0.09 0.09 0.08 0.07 0.06 0.05 0.06 0.08 0.12 0.18 0.28 0.41 0.57 0.74 0.95 1.17 1.43 1.66 1.82 1.84 1.86 1.89 1.87 1.82 1.70 1.59 1.58 1.62 1.64 1.68 1.61 1.51 1.64 1.96 2.29 2.24
0.17 0.11 0.05 0.04 0.05 0.04 0.03 0.04 0.07 0.12 0.18 0.23 0.25 0.26 0.23 0.19 0.19 0.18 0.16 0.16 0.18 0.29 0.41 0.53 0.76 0.93 1.07 1.13 1.23 1.45 1.56 1.63 1.74 1.88 1.93 1.93 1.84 1.71 1.56 1.51 1.54 1.60 1.69 1.68 1.72 1.86 2.12 2.34 2.47
0.12 0.08 0.06 0.05 0.05 0.05 0.04 0.07 0.17 0.25 0.32 0.40 0.40 0.37 0.33 0.26 0.24 0.27 0.30 0.31 0.35 0.57 0.81 0.96 1.07 1.16 1.16 1.14 1.16 1.30 1.43 1.52 1.60 1.73 1.79 1.73 1.59 1.54 1.51 1.49 1.45 1.40 1.47 1.57 1.73 1.96 2.07 2.23 2.41
0.07 0.08 0.10 0.11 0.09 0.08 0.05 0.13 0.28 0.29 0.27 0.31 0.34 0.33 0.29 0.22 0.19 0.24 0.33 0.46 0.65 0.90 1.14 1.28 1.28 1.18 1.04 1.02 1.09 1.15 1.30 1.44 1.48 1.49 1.51 1.45 1.38 1.34 1.36 1.37 1.31 1.21 1.20 1.31 1.48 1.69 1.75 1.86 2.04
0.06 0.06 0.12 0.16 0.12 0.09 0.12 0.28 0.39 0.31 0.21 0.17 0.18 0.18 0.20 0.25 0.31 0.32 0.38 0.57 0.85 1.12 1.37 1.64 1.62 1.38 1.16 1.10 1.17 1.18 1.27 1.33 1.31 1.25 1.26 1.26 1.22 1.17 1.11 1.14 1.14 1.11 1.10 1.12 1.21 1.31 1.38 1.48 1.65
0.04 0.05 0.08 0.13 0.09 0.07 0.13 0.27 0.29 0.20 0.15 0.13 0.15 0.18 0.24 0.31 0.41 0.49 0.61 0.71 0.92 1.14 1.48 1.76 1.82 1.62 1.46 1.37 1.31 1.31 1.21 1.12 1.05 0.97 0.96 0.99 1.00 0.94 0.90 0.97 1.06 1.12 1.04 0.98 1.04 1.10 1.14 1.25 1.36
0.03 0.05 0.09 0.16 0.16 0.14 0.16 0.24 0.20 0.11 0.10 0.13 0.19 0.24 0.29 0.37 0.43 0.58 0.84 1.05 1.28 1.23 1.37 1.61 1.54 1.48 1.46 1.47 1.46 1.35 1.20 1.07 1.03 0.95 0.92 0.89 0.94 0.85 0.85 0.88 0.89 0.90 0.88 0.91 1.00 1.09 1.17 1.18 1.22
0.04 0.06 0.09 0.14 0.18 0.21 0.29 0.34 0.22 0.18 0.20 0.26 0.32 0.35 0.38 0.46 0.51 0.65 0.82 0.97 1.16 1.27 1.29 1.33 1.32 1.33 1.29 1.22 1.18 1.06 0.86 0.75 0.76 0.77 0.73 0.68 0.71 0.66 0.68 0.66 0.70 0.81 0.80 0.80 0.89 0.95 0.98 1.07 1.16
0.10 0.13 0.14 0.21 0.27 0.31 0.45 0.51 0.33 0.33 0.38 0.45 0.52 0.54 0.58 0.59 0.62 0.72 0.80 0.95 1.04 1.05 1.10 1.17 1.10 1.09 1.04 0.93 0.84 0.72 0.57 0.51 0.56 0.57 0.52 0.44 0.47 0.44 0.51 0.55 0.54 0.70 0.86 0.88 0.91 0.92 0.89 0.94 0.98